Weather past 2 weeks in Mamoutzou, Mayotte

Now
82 °F

Passing clouds.


Feels Like: 86 °F
Forecast: 70 / 75 °F
Wind: 12 mph from South

Location: Dzaoudzi / Pamanzi Mayotte

Current Time: Jul 23, 2014 at 4:02:56 PM

Latest Report: Jul 23, 2014 at 2:00 PM


Visibility: N/A

Pressure: 30.01 "Hg

Humidity: 66%

Dew point: 70 °F

Location of MamoutzouLocation

Historic Weather in Mamoutzou — Graph

°F

Mamoutzou temperature yesterday

Maximum temperature yesterday: 84 °F (at 11:00 AM)
Minimum temperature yesterday: 75 °F (at 12:30 AM)
Average temperature yesterday: 79 °F

Past Weeks' High & Low Weather Summary

 TemperatureHumidityPressure
High84 °F (Jul 9, 10:00 AM)94% (Jul 20, 1:00 AM)30.15 "Hg (Jul 20, 1:00 AM)
Low72 °F (Jul 12, 1:00 AM)51% (Jul 9, 10:00 AM)29.95 "Hg (Jul 9, 4:00 PM)
Average78 °F72%30.05 "Hg
* Reported Jul 8 2:00 PM — Jul 23 2:00 PM, Mamoutzou, Weather by CustomWeather, © 2014

Note: Actual official high and low records may vary slightly from our data, if they occured in-between our weather recording intervals... More about our weather records

Advertising

Mamoutzou weather history for previous 24 hours

 ConditionsComfort  
Time TempWeatherWind HumidityBarometerVisibility
2:00 PM
Jul 23
82 °FPassing clouds.12 mph66%30.01 "HgN/A
1:00 PM82 °FPassing clouds.13 mph66%30.04 "HgN/A
12:30 PM82 °FScattered clouds.14 mph66%30.04 "HgN/A
12:00 PM84 °FScattered clouds.15 mph62%30.04 "HgN/A
9:00 AM82 °FScattered clouds.13 mph66%30.07 "HgN/A
8:30 AM81 °FScattered clouds.13 mph70%30.04 "HgN/A
8:00 AM81 °FScattered clouds.12 mph66%30.04 "HgN/A
7:30 AM79 °FScattered clouds.13 mph74%30.04 "HgN/A
7:00 AM77 °FScattered clouds.13 mph74%30.04 "HgN/A
6:30 AM77 °FScattered clouds.12 mph79%30.04 "HgN/A
6:00 AM77 °FPassing clouds.13 mph79%30.01 "HgN/A
5:30 AM77 °FPassing clouds.13 mph79%30.01 "HgN/A
5:00 AM75 °FPassing clouds.8 mph83%30.01 "HgN/A
4:30 AM75 °FPassing clouds.8 mph83%30.01 "HgN/A
4:00 AM75 °FPassing clouds.9 mph83%30.01 "HgN/A
3:30 AM75 °FPassing clouds.10 mph83%30.01 "HgN/A
3:00 AM75 °FPassing clouds.10 mph83%30.01 "HgN/A
8:00 PM
Jul 22
77 °FWarm.12 mph74%30.04 "HgN/A
7:30 PM77 °FWarm.13 mph74%30.04 "HgN/A
7:00 PM77 °FWarm.12 mph74%30.04 "HgN/A
6:30 PM79 °FWarm.12 mph70%30.04 "HgN/A
6:00 PM79 °FPassing clouds.13 mph70%30.04 "HgN/A
5:30 PM79 °FPassing clouds.13 mph70%30.01 "HgN/A
5:00 PM79 °FPassing clouds.12 mph70%30.01 "HgN/A
4:30 PM81 °FPassing clouds.10 mph62%30.01 "HgN/A
4:00 PM81 °FPassing clouds.10 mph66%30.01 "HgN/A
Weather by CustomWeather, © 2014

See weather overviewHow to use our weather pages